Preview of NWS' New Version of Forecast
This preview is not operational and should not be used for support decisions.
Latest weather observations around

Birmingham, Birmingham International Airport (KBHM)

Using English Units (Switch to International System of Units)
Date/ Time (CST) Wind (mph) Vis. (mi) Weather Sky Cond. Temp (°F) Rel. Humidity Wind Chill (°F) Heat Index (°F) Pressure Precip. (in)
Air Dwpt 6 hour Altimeter (inHg) Sea level (inHg) 1 hr 3 hr 6 hr
Max Min
Jan 24 01:53 WNW 11 5 Fog/Mist BKN007 OVC014 39 37     93% 32   29.88 29.88 0    
Jan 24 01:00 NW 13 4 Fog/Mist BKN007 BKN020 OVC026 40 39     97% 32   29.88   0    
Jan 24 00:53 WNW 11 3 Light Rain and Fog/Mist BKN010 OVC020 40 39     97% 33   29.87 29.86 0    
Jan 23 23:53   4 Fog/Mist BKN010 OVC020 42 40     92%     29.86 29.85     0
Jan 23 23:24 W 15 10 Cloudy BKN010 OVC020 44 42     93% 37   29.84        
Jan 23 22:53 W 16 5 Fog/Mist BKN007 OVC011 45 44     97% 38   29.83 29.82 0    
Jan 23 22:11   6 Light Rain and Fog/Mist BKN005 OVC018 48 46     93%     29.82   0    
Jan 23 22:02   4 Rain and Fog/Mist SCT005 BKN018 OVC024 51 50     96%     29.81   0    
Jan 23 21:53 WSW 7 7 Cloudy SCT018 BKN023 OVC034 53 52     96%     29.77 29.76 0    
Jan 23 21:50 WSW 8 8 Cloudy BKN023 BKN034 OVC100 54 52     94%     29.77   0    
Jan 23 20:53 Calm 8 Light Rain BKN080 OVC100 53 52     96%     29.77 29.76 0 0  
Jan 23 19:53 Calm 6 Light Rain and Fog/Mist OVC065 53 52     96%     29.8 29.79 0    
Jan 23 18:53 Calm 6 Light Rain and Fog/Mist BKN055 OVC075 54 53     97%     29.82 29.81 0    
Jan 23 17:53 NNE 3 3 Light Rain and Fog/Mist SCT006 BKN050 OVC070 54 53     97%     29.8 29.8 0   2
Jan 23 17:47 N 3 3 Light Rain and Fog/Mist SCT006 BKN050 OVC070 54 52     94%     29.81   0    
Jan 23 16:53 N 8 2 Heavy Rain and Fog/Mist BKN006 OVC034 54 53     97%     29.82 29.81 0    
Jan 23 16:40 NNW 10 2 Heavy Rain and Fog/Mist BKN006 OVC030 55 53     93%     29.83   0    
Jan 23 16:19 NNW 9 2 Heavy Rain and Fog/Mist FEW008 OVC037 55 53     93%     29.83   0    
Jan 23 15:53 NNW 14 2 Heavy Rain and Fog/Mist SCT008 BKN029 OVC036 55 53     93%     29.81 29.8 0    
Jan 23 15:50 NNW 13 2 Heavy Rain and Fog/Mist FEW008 BKN027 OVC036 55 54     94%     29.81   0    
Jan 23 15:46 NNW 16 1.75 Heavy Rain and Fog/Mist SCT008 BKN011 OVC023 55 54     96%     29.82   0    
Jan 23 15:44 NNW 11 2 Heavy Rain and Fog/Mist FEW008 BKN023 OVC029 56 54     93%     29.82   0    
Jan 23 15:27   2 Heavy Rain and Fog/Mist BKN008 BKN014 OVC036 56 54     93%     29.82   0    
Jan 23 15:20   1.5 Heavy Rain and Fog/Mist BKN008 BKN014 OVC024 57 55     93%     29.8   0    
Jan 23 15:06   1.5 Heavy Rain and Fog/Mist SCT008 BKN014 OVC045 59 57     93%     29.8   0    
Jan 23 14:57 WNW 10 1.5 Heavy Rain and Fog/Mist FEW006 BKN042 OVC049 59 57     93%     29.79   0    
Jan 23 14:53 WSW 7 2 Heavy Rain and Fog/Mist FEW029 BKN048 OVC065 59 57     93%     29.79 29.78 0 1  
Jan 23 14:15 SE 10 2.5 Rain and Fog/Mist FEW013 BKN037 OVC070 59 57     93%     29.8   0    
Jan 23 13:53   1 Heavy Rain and Fog/Mist FEW013 SCT025 OVC035 59 57     93%     29.82 29.81 1    
Jan 23 13:20 SSE 13 1.25 Heavy Rain and Fog/Mist SCT012 BKN030 OVC055 59 57     93%     29.83   0    
Jan 23 13:09 SSE 16 1.75 Heavy Rain and Fog/Mist BKN014 BKN021 OVC055 59 57     93%     29.84   0    
Jan 23 12:48 SSE 14 2 Rain and Fog/Mist BKN018 BKN042 OVC095 59 57     93%     29.86 29.85 0    
Jan 23 12:47 SSE 15 2 Rain and Fog/Mist BKN018 BKN042 OVC095 59 57     94%     29.86   0    
Jan 23 12:27 SE 15 2 Heavy Rain and Fog/Mist BKN012 BKN065 OVC095 59 57     93%     29.86   0    
Jan 23 12:02 SSE 18 3 Rain and Fog/Mist BKN012 BKN065 OVC095 59 56     90%     29.89   0    
Jan 23 11:56   2 Heavy Rain and Fog/Mist SCT049 BKN065 OVC095 58 56     93%     29.9   0    
Jan 23 11:53 SSE 17 1.5 Rain and Fog/Mist BKN012 BKN065 OVC095 58 56     93%     29.91 29.9 0   0
Jan 23 11:41   2 Rain and Fog/Mist BKN012 BKN065 OVC095 59 56     90%     29.91   0    
Jan 23 11:30 SSE 15 1.75 Rain and Fog/Mist SCT046 BKN060 OVC090 59 56     90%     29.92   0    
Jan 23 11:23 SSE 16 2 Rain and Fog/Mist SCT046 BKN070 OVC090 59 56     90%     29.93   0    
Jan 23 10:53   10 Cloudy FEW019 OVC100 60 54     80%     29.93 29.92      
Jan 23 10:39 SSE 16 10 Cloudy SCT019 OVC100 60 54     80%     29.95        
Jan 23 10:24 SSE 17 10 Cloudy BKN019 OVC100 59 54     83%     29.96        
Jan 23 09:53 SSE 13 10 Cloudy FEW095 SCT110 OVC250 58 54     87%     29.98 29.97 0    
Jan 23 09:49 SE 16 10 Cloudy FEW095 SCT110 OVC250 57 54     88%     29.99   0    
Jan 23 08:53   2.5 Light Rain and Fog/Mist FEW018 BKN034 OVC060 57 53     87%     30.01 30 0 0  
Jan 23 07:53   4 Light Rain SCT048 SCT055 OVC070 58 52     81%     30.03 30.02 0    
Jan 23 06:53   8 Light Rain FEW025 BKN050 OVC075 57 52     83%     30.04 30.03 0    
Jan 23 05:53 SE 15 10 Light Rain BKN055 OVC070 55 50     83%     30.05 30.05 0   0
Jan 23 04:53 SE 15 6 Light Rain FEW048 BKN070 OVC080 55 49     80%     30.08 30.08 0    
Jan 23 03:53 SE 15 10 Cloudy BKN090 OVC100 55 47     74%     30.11 30.1 0    
Jan 23 02:53   10 Light Rain FEW032 BKN060 OVC090 53 47     80%     30.14 30.13 0 0  
Jan 23 01:53   10 Cloudy BKN070 OVC100 54 45     72%     30.17 30.16      
Jan 23 00:53 ESE 15 10 Cloudy SCT075 OVC090 53 43     69%     30.18 30.18      
Jan 22 23:53 SE 13 10 Cloudy FEW065 OVC090 53 43     69%     30.21 30.21      
Jan 22 22:53 SE 14 10 Mostly Cloudy BKN085 53 41     63%     30.24 30.24      
Jan 22 21:53   10 Cloudy OVC075 52 40     63%     30.25 30.25      
Jan 22 20:53 ESE 15 10 Cloudy OVC070 52 39     61%     30.26 30.26      
Jan 22 19:53   10 Cloudy OVC065 51 38     61%     30.28 30.28      
Jan 22 18:53   10 Cloudy OVC065 51 38     61%     30.29 30.29      
Jan 22 17:53   10 Cloudy OVC060 50 37     61%     30.28 30.28      
Jan 22 16:53 SE 15 10 Cloudy OVC060 51 37     59%     30.29 30.29      
Jan 22 15:53   10 Cloudy OVC060 53 37     54%     30.3 30.3      
Jan 22 14:53 ESE 15 10 Partly Cloudy SCT060 54 36     50%     30.3 30.3      
Jan 22 13:53 ESE 15 10 Mostly Cloudy BKN060 53 36     52%     30.32 30.32      
Jan 22 12:53 ESE 14 10 Mostly Cloudy BKN055 52 35     52%     30.35 30.35      
Jan 22 11:53 SE 13 10 Mostly Cloudy FEW038 BKN050 51 34     52%     30.4 30.4      
Jan 22 10:53   10 Partly Cloudy SCT049 48 32     54%     30.43 30.43      
Jan 22 09:53 SE 11 10 Mostly Clear FEW035 45 26     47% 39   30.45 30.46      
Jan 22 08:53 ESE 10 10 Cloudy OVC032 40 20     44% 33   30.46 30.47      
Jan 22 07:53 SE 11 10 Mostly Clear FEW150 38 19     46% 30   30.46 30.47      
Jan 22 06:53   10 Clear CLR 37 19     48%     30.45 30.46      
Jan 22 05:53 ESE 10 10 Partly Cloudy SCT250 37 21     52% 30   30.44 30.45      
Jan 22 04:53 ESE 8 10 Partly Cloudy SCT250 37 19     48% 31   30.41 30.41      
Jan 22 03:53 ESE 9 10 Partly Cloudy SCT250 37 20     50% 30   30.39 30.4      
Jan 22 02:53 ESE 8 10 Mostly Clear FEW250 37 19     48% 31   30.39 30.4      
Jan 22 01:53 E 9 10 Clear CLR 37 18     46% 30   30.38 30.39      
Jan 22 00:53 E 7 10 Mostly Clear FEW250 36 15     42% 30   30.39 30.4      
Jan 21 23:53 E 6 10 Mostly Clear FEW250 36 13     38% 31   30.39 30.39      
Jan 21 22:53 ENE 6 10 Mostly Clear FEW250 35 12     38% 30   30.38 30.39      
Jan 21 21:53 ENE 8 10 Partly Cloudy SCT250 36 11     35% 30   30.36 30.37      
Jan 21 20:53 ENE 7 10 Partly Cloudy SCT250 36 10     34% 30   30.37 30.38      
Jan 21 19:53 ENE 6 10 Partly Cloudy SCT250 37        % 32   30.38 30.39      
Jan 21 18:53 E 5 10 Partly Cloudy SCT250 38        % 34   30.38 30.39      
Jan 21 17:53 E 6 10 Partly Cloudy SCT250 39 9     28% 35   30.4 30.41      
Jan 21 16:53 E 3 10 Partly Cloudy SCT250 42 9     25% 40   30.4 30.41      
Jan 21 15:53 ENE 7 10 Mostly Clear FEW250 43 8     23% 39   30.4 30.41      
Jan 21 14:53 Calm 10 Mostly Clear FEW250 43 11     27%     30.4 30.41      
Jan 21 13:53 ENE 8 10 Partly Cloudy SCT250 42        % 37   30.41 30.42      
Jan 21 12:53 NE 6 10 Clear CLR 40        % 36   30.44 30.45      
Jan 21 11:53 ENE 6 10 Partly Cloudy SCT250 37 12     35% 32   30.47 30.47      
Jan 21 10:53 E 8 10 Partly Cloudy SCT250 34 12     40% 27   30.49 30.51      
Jan 21 09:53 7 10 Partly Cloudy SCT250 31 13     47% 24   30.49 30.51      
Jan 21 08:53 NE 10 10 Partly Cloudy SCT250 29 13     51% 20   30.47 30.48      
Jan 21 07:53 NNE 8 10 Clear CLR 26 18     71% 18   30.45 30.47      
Jan 21 06:53 N 6 10 Clear CLR 22 18     84% 14   30.42 30.44      
Jan 21 05:53 N 6 10 Clear CLR 23 18     81% 16   30.38 30.4      
Jan 21 04:53 N 6 10 Clear CLR 24 18     77% 17   30.36 30.37      
Jan 21 03:53 NNE 7 10 Clear CLR 25 17     71% 17   30.34 30.35      
Jan 21 02:53 N 7 10 Clear CLR 26 18     71% 18   30.34 30.36      
May 13 22:53 Calm 10 Clear CLR 73 64     73%   73 30.09 30.06      
May 13 16:53 NNW 7 10 Mostly Clear FEW065 91 58     33%   90 30.06 30.03      
May 13 13:53 6 10 Mostly Clear FEW065 89 60     38%   89 30.12 30.1      
May 12 16:53 S 7 10 Mostly Clear FEW250 89 53     29%   87 30.1 30.08      
May 12 08:53 Calm 10 Clear CLR 78 58     50%   78 30.2 30.17      
May 12 03:53 Calm 10 Clear CLR 64 59     84%     30.13 30.1      
May 11 20:53 SSE 3 10 Clear CLR 78 58     50%   78 30.11 30.08      
Jun 12 03:53 SSE 5 10 Mostly Clear FEW040 74 71     91%   75 30.15 30.13      
Jun 11 23:53 SSE 5 10 Mostly Clear FEW050 79 70     74%   82 30.15 30.12      
Jun 11 07:53 SE 9 10 Partly Cloudy SCT065 SCT250 75 66     74%   76 30.17 30.14      
Jun 10 13:53 ESE 9 10 Mostly Cloudy SCT060 BKN075 86 58     39%   85 30.09 30.06      
Jun 10 11:53 3 10 Partly Cloudy SCT070 82        %     30.11 30.09      
Jun 08 22:53 Calm 10 Clear CLR 68 59     73%     29.95 29.93      
Jun 08 20:53 N 7 10 Mostly Clear FEW250 70 58     66%     29.91 29.89      
Jun 07 18:53   10 Mostly Clear FEW065 FEW250 79 54     42%   79 29.87 29.85      
Jun 06 03:11 NE 5 10 Mostly Cloudy FEW007 FEW022 BKN028 71 70     96%   72 29.81        
Jun 06 02:53 NNE 5 10 Partly Cloudy SCT120 71 70     96%   72 29.81 29.78      
Jun 05 19:53 Calm 10 Light Rain FEW020 SCT120 OVC250 72 70     93%   73 29.82 29.8 0    
Jun 05 14:53 Calm 10 Cloudy BKN065 BKN100 OVC250 75 70     84%   76 29.84 29.82 0